Time,TemperatureF,DewpointF,PressureIn,WindDirection,WindDirectionDegrees,WindSpeedMPH,WindSpeedGustMPH,Humidity,HourlyPrecipIn,Conditions,Clouds,dailyrainin,SoftwareType,DateUTC
2013-10-21 08:52:00,53.0,45.0,30.02,South,179,0.0,-999.0,75,-99.99,,,-99.99,,2013-10-21 13:52:00,
2013-10-21 09:11:00,54.0,46.0,30.02,SSW,203,0.0,-999.0,73,-99.99,,,-99.99,,2013-10-21 14:11:00,
2013-10-21 09:22:00,55.0,46.0,30.02,SSW,203,2.0,-999.0,71,-99.99,,,-99.99,,2013-10-21 14:22:00,
2013-10-21 09:42:00,55.0,45.0,30.02,SW,236,5.0,-999.0,70,-99.99,,,-99.99,,2013-10-21 14:42:00,
2013-10-21 09:52:00,57.0,46.0,30.02,SW,221,5.0,-999.0,66,-99.99,,,-99.99,,2013-10-21 14:52:00,
2013-10-21 10:21:00,59.0,47.0,30.02,SSW,208,7.0,-999.0,64,-99.99,,,-99.99,,2013-10-21 15:21:00,
2013-10-21 10:43:00,59.0,46.0,30.02,SSW,213,6.0,-999.0,63,-99.99,,,-99.99,,2013-10-21 15:43:00,
2013-10-21 10:53:00,60.0,46.0,30.02,SW,230,6.0,-999.0,59,-99.99,,,-99.99,,2013-10-21 15:53:00,
2013-10-21 11:13:00,60.0,46.0,30.02,SW,218,8.0,-999.0,59,-99.99,,,-99.99,,2013-10-21 16:13:00,
2013-10-21 11:23:00,61.0,46.0,30.01,SW,225,5.0,-999.0,58,-99.99,,,-99.99,,2013-10-21 16:23:00,
2013-10-21 11:43:00,62.0,47.0,30.01,WSW,242,5.0,-999.0,57,-99.99,,,-99.99,,2013-10-21 16:43:00,
2013-10-21 11:53:00,63.0,47.0,30.01,WSW,237,7.0,-999.0,55,-99.99,,,-99.99,,2013-10-21 16:53:00,
2013-10-21 12:12:00,64.0,46.0,30.01,WSW,248,6.0,-999.0,52,-99.99,,,-99.99,,2013-10-21 17:12:00,
2013-10-21 12:22:00,65.0,48.0,30.01,WSW,250,7.0,-999.0,54,-99.99,,,-99.99,,2013-10-21 17:22:00,
2013-10-21 12:43:00,65.0,47.0,30.00,SW,232,5.0,-999.0,53,-99.99,,,-99.99,,2013-10-21 17:43:00,
2013-10-21 12:53:00,66.0,48.0,29.99,SW,233,3.0,-999.0,52,-99.99,,,-99.99,,2013-10-21 17:53:00,
2013-10-21 13:12:00,66.0,48.0,29.99,WSW,248,3.0,-999.0,53,-99.99,,,-99.99,,2013-10-21 18:12:00,
2013-10-21 13:22:00,67.0,48.0,29.99,WNW,302,2.0,-999.0,50,-99.99,,,-99.99,,2013-10-21 18:22:00,
2013-10-21 13:42:00,68.0,49.0,29.98,West,269,3.0,-999.0,51,-99.99,,,-99.99,,2013-10-21 18:42:00,
2013-10-21 13:52:00,68.0,48.0,29.97,WNW,288,0.0,-999.0,49,-99.99,,,-99.99,,2013-10-21 18:52:00,
2013-10-21 14:11:00,68.0,49.0,29.97,WSW,254,3.0,-999.0,50,-99.99,,,-99.99,,2013-10-21 19:11:00,
2013-10-21 14:22:00,67.0,47.0,29.96,WSW,254,3.0,-999.0,49,-99.99,,,-99.99,,2013-10-21 19:22:00,
2013-10-21 14:42:00,68.0,49.0,29.96,West,272,2.0,-999.0,51,-99.99,,,-99.99,,2013-10-21 19:42:00,
2013-10-21 14:52:00,68.0,49.0,29.96,WSW,245,2.0,-999.0,51,-99.99,,,-99.99,,2013-10-21 19:52:00,
2013-10-21 15:11:00,67.0,49.0,29.96,WNW,295,1.0,-999.0,52,-99.99,,,-99.99,,2013-10-21 20:11:00,
2013-10-21 15:22:00,67.0,50.0,29.96,WNW,288,1.0,-999.0,54,-99.99,,,-99.99,,2013-10-21 20:22:00,
2013-10-21 15:52:00,68.0,49.0,29.95,West,262,2.0,-999.0,51,-99.99,,,-99.99,,2013-10-21 20:52:00,
2013-10-21 16:22:00,67.0,48.0,29.95,West,263,2.0,-999.0,51,-99.99,,,-99.99,,2013-10-21 21:22:00,
2013-10-21 16:54:00,67.0,49.0,29.96,West,271,2.0,-999.0,52,-99.99,,,-99.99,,2013-10-21 21:54:00,
2013-10-21 17:24:00,67.0,50.0,29.96,WSW,257,1.0,-999.0,54,-99.99,,,-99.99,,2013-10-21 22:24:00,
2013-10-21 17:44:00,67.0,50.0,29.96,WNW,283,0.0,-999.0,54,-99.99,,,-99.99,,2013-10-21 22:44:00,
2013-10-21 17:53:00,66.0,50.0,29.95,West,279,0.0,-999.0,57,-99.99,,,-99.99,,2013-10-21 22:53:00,